[[{"header":{"parameterUnit":"m.s-1","parameterCategory":1,"la1":30.2991,"la2":30.254,"lo1":-89.0895,"lo2":-89.0444,"dy":0.0017,"dx":0.0017,"nx":28,"ny":28,"refTime":"2025-05-16T21:00:00:Z","depth":0,"parameterNumber":2,"parameterNumberName":"U-component_of_WINDS"},"data":[0,0,0,0,0,0,0,0,0,0,0,0,0,0,0,0,0,0,0,0,0,0,0,0,0,0,0,0,0,0,0,0,0,0,0,0,0,0,0,0,0,0,0,0,0,0,0,0,0,0,0,0,0,0,0,0,0,0,-0.1106,-0.1106,0,-0.1107,-0.1107,-0.1107,-0.1141,-0.1142,-0.1143,-0.1144,-0.1141,-0.1141,-0.114,0,0,0,0,0,0,0,0,0,0,0,0,0,-0.1131,-0.1131,-0.1106,-0.1106,-0.1106,-0.1107,-0.1107,-0.1107,-0.1141,-0.1142,-0.1143,-0.1145,-0.1142,-0.1141,-0.114,0,0,0,0,0,0,0,0,0,0,0,0,0,-0.1125,-0.113,-0.1106,-0.1124,-0.1125,-0.1107,-0.1107,-0.1107,-0.1141,-0.1142,-0.1144,-0.1145,-0.1142,-0.1141,-0.1139,-0.1104,0,0,-0.1135,-0.1135,0,0,0,0,0,0,0,0,-0.1125,-0.1124,-0.1121,-0.1122,-0.1124,-0.1126,-0.1115,-0.1106,-0.1141,-0.1135,-0.1144,-0.1146,-0.1135,-0.1134,-0.1131,-0.1104,-0.1104,-0.1135,-0.1134,-0.1134,-0.1133,0,0,0,0,0,0,0,-0.1126,-0.1124,-0.1107,-0.1121,-0.1123,-0.113,-0.1131,-0.1114,-0.1127,-0.1136,-0.1138,-0.1138,-0.1136,-0.1133,-0.1132,-0.1104,-0.1135,-0.1134,-0.1133,-0.1133,-0.1047,-0.1046,0,0,0,0,0,0,-0.1124,-0.1124,-0.1107,-0.1107,-0.1128,-0.1129,-0.1129,-0.1124,-0.1128,-0.113,-0.1137,-0.1139,-0.1134,-0.1133,-0.1132,-0.109,-0.1134,-0.1133,-0.1132,-0.1049,-0.1047,-0.1045,0,0,0,0,0,0,-0.1125,-0.1122,-0.1107,-0.1116,-0.1115,-0.1127,-0.112,-0.1123,-0.112,-0.1129,-0.1131,-0.1131,-0.1135,-0.1133,-0.1111,-0.109,-0.1132,-0.1131,-0.105,-0.1048,-0.1046,-0.1006,0,0,0,0,0,0,-0.1125,-0.1122,-0.111,-0.1116,-0.1114,-0.1087,-0.1119,-0.1122,-0.1118,-0.1121,-0.1124,-0.1125,-0.1136,-0.1113,-0.111,-0.1089,-0.113,-0.1052,-0.1049,-0.1047,-0.1009,-0.1003,-0.0997,0,0,0,0,0,-0.1126,-0.1098,-0.1109,-0.1106,-0.1099,-0.1085,-0.1084,-0.1098,-0.1116,-0.1103,-0.1109,-0.1125,-0.1094,-0.111,-0.1107,-0.1085,-0.1054,-0.105,-0.1047,-0.1012,-0.1004,-0.0997,0,0,0,0,0,0,-0.1087,-0.1099,-0.1111,-0.1084,-0.1084,-0.1091,-0.1075,-0.109,-0.1083,-0.1087,-0.1104,-0.1104,-0.1078,-0.108,-0.1098,-0.1051,-0.1076,-0.1072,-0.1051,-0.1043,-0.1038,-0.1037,-0.1129,0,0,0,0,0,-0.1076,-0.1065,-0.1075,-0.1051,-0.105,-0.1062,-0.1057,-0.1068,-0.1068,-0.1067,-0.1072,-0.107,-0.1059,-0.1052,-0.1043,-0.1011,-0.1011,-0.0994,-0.0988,-0.0983,-0.0979,-0.0961,-0.0953,-0.1035,-0.1035,-0.1035,0,0,-0.1052,-0.1057,-0.1048,-0.1043,-0.1044,-0.1031,-0.1062,-0.1047,-0.1037,-0.1065,-0.1044,-0.1047,-0.1046,-0.1018,-0.1006,-0.1018,-0.0957,-0.0979,-0.0975,-0.0973,-0.0957,-0.0949,-0.0942,-0.1032,-0.1033,-0.1033,0,0,-0.1,-0.1004,-0.0983,-0.0984,-0.0985,-0.0994,-0.0989,-0.0995,-0.0998,-0.0978,-0.0998,-0.0986,-0.0968,-0.0966,-0.0963,-0.0913,-0.0927,-0.0909,-0.0877,-0.0859,-0.0853,-0.0847,-0.0827,-0.082,-0.0905,-0.0905,-0.0905,0,-0.097,-0.0952,-0.097,-0.0954,-0.0951,-0.0977,-0.0955,-0.0955,-0.0953,-0.0949,-0.0964,-0.0942,-0.0943,-0.0915,-0.0903,-0.09,-0.0893,-0.0908,-0.0853,-0.0847,-0.0842,-0.0823,-0.0816,-0.0903,-0.0903,-0.0903,-0.0904,0,-0.0914,-0.0901,-0.0884,-0.0883,-0.0878,-0.0859,-0.0873,-0.0866,-0.0878,-0.0884,-0.0863,-0.0866,-0.0857,-0.0852,-0.0863,-0.0825,-0.0833,-0.085,-0.0875,-0.0832,-0.0814,-0.0807,-0.09,-0.09,-0.0901,-0.0902,0,0,-0.0836,-0.0846,-0.0839,-0.0838,-0.0843,-0.0833,-0.0815,-0.0808,-0.0801,-0.0799,-0.0784,-0.0768,-0.0784,-0.0781,-0.0792,-0.0777,-0.0735,-0.0796,-0.0796,-0.0783,-0.0691,-0.0677,-0.0668,-0.0746,-0.0745,-0.0744,-0.0691,0,-0.0785,-0.0756,-0.0772,-0.0741,-0.0729,-0.0754,-0.0738,-0.0739,-0.0745,-0.0735,-0.0742,-0.073,-0.0753,-0.0751,-0.0737,-0.0743,-0.0716,-0.0747,-0.073,-0.0729,-0.0727,-0.066,-0.0644,-0.0594,-0.0685,-0.0683,-0.0683,0,-0.0722,-0.0718,-0.0685,-0.0692,-0.0687,-0.0673,-0.0668,-0.0659,-0.0659,-0.0665,-0.0662,-0.0677,-0.0659,-0.0686,-0.066,-0.0681,-0.0675,-0.0677,-0.0675,-0.0672,-0.0701,-0.0653,-0.0579,-0.0571,-0.0672,-0.0673,-0.0674,0,-0.0666,-0.0653,-0.0632,-0.0631,-0.0638,-0.0627,-0.063,-0.0632,-0.0627,-0.0622,-0.0619,-0.0612,-0.0608,-0.0602,-0.0614,-0.0633,-0.0587,-0.0615,-0.0589,-0.0589,-0.0576,-0.0576,-0.0498,-0.0576,-0.0576,-0.0576,-0.0577,0,-0.0607,-0.0585,-0.0607,-0.0593,-0.057,-0.0589,-0.0565,-0.057,-0.0572,-0.0559,-0.0581,-0.0568,-0.0586,-0.0575,-0.0585,-0.0562,-0.056,-0.0563,-0.0566,-0.056,-0.0559,-0.0554,-0.0557,-0.0574,-0.0575,-0.0575,-0.0576,0,-0.054,-0.0554,-0.0532,-0.0541,-0.0543,-0.0525,-0.0532,-0.0519,-0.0528,-0.0512,-0.0509,-0.0522,-0.051,-0.0523,-0.0511,-0.0518,-0.0486,-0.0495,-0.0486,-0.0487,-0.046,-0.0462,-0.0375,-0.0363,-0.045,-0.045,-0.0449,0,-0.0499,-0.0484,-0.0491,-0.0485,-0.0486,-0.0476,-0.0471,-0.0489,-0.0483,-0.0483,-0.047,-0.046,-0.0453,-0.0433,-0.044,-0.0432,-0.0439,-0.0409,-0.0437,-0.0432,-0.0436,-0.0436,-0.0433,-0.0402,-0.0401,-0.04,-0.0399,0,-0.0426,-0.0434,-0.0427,-0.0422,-0.0415,-0.0412,-0.041,-0.0404,-0.0423,-0.0414,-0.0403,-0.0398,-0.0387,-0.0376,-0.037,-0.0372,-0.0388,-0.0391,-0.0384,-0.0377,-0.0372,-0.0372,-0.0468,-0.0392,-0.0393,-0.0393,-0.0394,-0.0394,-0.037,-0.0357,-0.036,-0.0351,-0.0352,-0.035,-0.0338,-0.0346,-0.0337,-0.033,-0.0342,-0.0327,-0.0328,-0.0322,-0.0322,-0.031,-0.0322,-0.0313,-0.031,-0.0307,-0.0302,-0.0376,-0.0309,-0.0309,-0.031,-0.031,-0.031,0,-0.0296,-0.03,-0.0292,-0.0289,-0.0281,-0.03,-0.0299,-0.0291,-0.0278,-0.0278,-0.0272,-0.0258,-0.0248,-0.0256,-0.0247,-0.0236,-0.0243,-0.0233,-0.0233,-0.0232,-0.0292,-0.0298,-0.0227,-0.0227,-0.0227,-0.0227,-0.0227,-0.0227,-0.0257,-0.0235,-0.0243,-0.0222,-0.0226,-0.0212,-0.021,-0.0208,-0.0208,-0.0192,-0.0185,-0.019,-0.0193,-0.0185,-0.0177,-0.0179,-0.0174,-0.0161,-0.0165,-0.022,-0.0228,-0.0236,-0.0241,-0.016,-0.016,-0.0106,-0.0106,-0.0105]},{"header":{"parameterUnit":"m.s-1","parameterCategory":1,"la1":30.2991,"la2":30.254,"lo1":-89.0895,"lo2":-89.0444,"dy":0.0017,"dx":0.0017,"nx":28,"ny":28,"refTime":"2025-05-16T21:00:00:Z","depth":0,"parameterNumber":3,"parameterNumberName":"V-component_of_WINDS"},"data":[0,0,0,0,0,0,0,0,0,0,0,0,0,0,0,0,0,0,0,0,0,0,0,0,0,0,0,0,0,0,0,0,0,0,0,0,0,0,0,0,0,0,0,0,0,0,0,0,0,0,0,0,0,0,0,0,0,0,4.8222,4.8222,0,4.8185,4.8185,4.8184,4.813,4.8129,4.8128,4.8127,4.8089,4.8089,4.8089,0,0,0,0,0,0,0,0,0,0,0,0,0,4.8246,4.8246,4.8222,4.8222,4.8221,4.8185,4.8185,4.8184,4.813,4.8129,4.8128,4.8127,4.8089,4.8089,4.8089,0,0,0,0,0,0,0,0,0,0,0,0,0,4.8225,4.8246,4.8222,4.819,4.8187,4.8185,4.8185,4.8184,4.813,4.8129,4.8127,4.8126,4.8089,4.8089,4.8089,4.8116,0,0,4.8088,4.8088,0,0,0,0,0,0,0,0,4.8226,4.8224,4.8195,4.8192,4.8188,4.8161,4.8179,4.8161,4.8131,4.8152,4.8127,4.8125,4.8114,4.8112,4.8108,4.8114,4.8113,4.8088,4.8088,4.8088,4.8088,0,0,0,0,0,0,0,4.8228,4.8225,4.8207,4.8195,4.8191,4.8177,4.8173,4.8175,4.8141,4.815,4.8146,4.8142,4.8112,4.8108,4.8107,4.8112,4.8088,4.8088,4.8088,4.8088,4.8138,4.8139,0,0,0,0,0,0,4.8234,4.8227,4.8209,4.8206,4.8204,4.8178,4.8173,4.8171,4.8141,4.8135,4.8143,4.814,4.8109,4.8107,4.8105,4.8134,4.8088,4.8088,4.8088,4.8136,4.8138,4.814,0,0,0,0,0,0,4.8235,4.8233,4.821,4.8215,4.8212,4.8179,4.8177,4.8171,4.8167,4.8136,4.813,4.8146,4.8108,4.8105,4.8113,4.8132,4.8088,4.8088,4.8135,4.8137,4.8139,4.8194,0,0,0,0,0,0,4.8235,4.8233,4.8244,4.8216,4.8211,4.822,4.8179,4.8171,4.8167,4.8162,4.8137,4.8131,4.8107,4.8114,4.8113,4.8131,4.8087,4.8133,4.8136,4.8138,4.819,4.8197,4.8204,0,0,0,0,0,4.8237,4.8261,4.8244,4.8242,4.8224,4.8221,4.8218,4.8189,4.8169,4.8179,4.8158,4.8132,4.813,4.8115,4.8114,4.8132,4.8132,4.8135,4.8138,4.8187,4.8196,4.8204,0,0,0,0,0,0,4.8291,4.8256,4.8238,4.8254,4.8241,4.8212,4.8223,4.82,4.8192,4.8188,4.8152,4.8147,4.816,4.8146,4.813,4.8156,4.8127,4.813,4.8165,4.8173,4.818,4.8182,4.8087,0,0,0,0,0,4.8305,4.8306,4.8275,4.8292,4.8287,4.8256,4.8254,4.8233,4.8218,4.8212,4.8192,4.8179,4.8175,4.8173,4.8168,4.8188,4.8181,4.8199,4.8206,4.8212,4.8215,4.8224,4.8232,4.815,4.815,4.815,0,0,4.8334,4.8315,4.8318,4.8303,4.829,4.8292,4.8252,4.8255,4.8256,4.8212,4.8219,4.8204,4.8186,4.82,4.8205,4.819,4.8236,4.8216,4.8221,4.8221,4.8228,4.8236,4.8243,4.8153,4.8152,4.8152,0,0,4.8387,4.8373,4.8385,4.8373,4.8354,4.8334,4.8337,4.8311,4.83,4.8305,4.8273,4.8273,4.8267,4.8255,4.8249,4.8297,4.8272,4.8296,4.8332,4.8341,4.8347,4.8353,4.837,4.8376,4.8299,4.8299,4.83,0,4.8426,4.8426,4.8395,4.84,4.8394,4.8355,4.8367,4.8356,4.8337,4.8334,4.8316,4.8308,4.8293,4.8304,4.8315,4.8311,4.8313,4.8299,4.8349,4.8354,4.8359,4.8374,4.8381,4.8302,4.8302,4.8302,4.8302,0,4.8474,4.8475,4.8487,4.8469,4.8465,4.8474,4.8443,4.8442,4.8421,4.8402,4.8408,4.8389,4.8379,4.838,4.836,4.8387,4.8378,4.8356,4.8325,4.837,4.8384,4.839,4.8307,4.8306,4.8305,4.8304,0,0,4.8561,4.8525,4.853,4.8521,4.8497,4.8497,4.8504,4.8494,4.8493,4.8481,4.8485,4.8481,4.846,4.8452,4.843,4.8438,4.8477,4.8414,4.8413,4.8426,4.8505,4.8522,4.853,4.846,4.8461,4.8462,4.8507,0,4.861,4.8619,4.859,4.8607,4.8607,4.8569,4.8575,4.856,4.8543,4.854,4.852,4.8518,4.849,4.8485,4.8491,4.8471,4.8492,4.8467,4.8463,4.8464,4.8469,4.8537,4.8556,4.8599,4.8512,4.8513,4.8513,0,4.8668,4.8658,4.8675,4.8649,4.8648,4.8653,4.8641,4.864,4.8622,4.8609,4.86,4.8574,4.8578,4.8549,4.8554,4.8538,4.8534,4.8524,4.8525,4.8523,4.8491,4.8538,4.8612,4.8619,4.8522,4.8521,4.8521,0,4.8729,4.872,4.8729,4.8723,4.8693,4.8698,4.8685,4.8666,4.8662,4.8652,4.8648,4.8638,4.8633,4.8626,4.8598,4.8579,4.8606,4.8574,4.8594,4.8595,4.8602,4.8602,4.8677,4.86,4.86,4.86,4.8599,0,4.8786,4.8798,4.8756,4.8762,4.8773,4.874,4.8752,4.8736,4.872,4.8721,4.8687,4.8689,4.8652,4.8649,4.8627,4.8634,4.8632,4.8621,4.8615,4.8624,4.8625,4.8621,4.8618,4.8601,4.8601,4.8601,4.86,0,4.8857,4.883,4.8837,4.8808,4.8801,4.8811,4.8786,4.8789,4.8769,4.8771,4.8769,4.8738,4.8733,4.8704,4.8693,4.8678,4.8693,4.8681,4.8699,4.8695,4.8716,4.8715,4.8791,4.8799,4.8718,4.8719,4.8719,0,4.8896,4.8904,4.8875,4.8874,4.8863,4.8861,4.8856,4.8824,4.882,4.88,4.8806,4.8798,4.879,4.8784,4.876,4.8751,4.8738,4.8766,4.8737,4.8745,4.8738,4.8738,4.8739,4.8772,4.8773,4.8774,4.8775,0,4.8967,4.8952,4.8947,4.8937,4.8932,4.8922,4.891,4.8911,4.8874,4.8872,4.8866,4.886,4.8848,4.8841,4.8827,4.8814,4.8788,4.8784,4.8788,4.8798,4.8808,4.8802,4.8716,4.8783,4.8782,4.8781,4.8781,4.878,4.9022,4.9027,4.9008,4.9003,4.899,4.898,4.8982,4.8961,4.8956,4.8944,4.8925,4.8922,4.8903,4.8883,4.8871,4.8868,4.8853,4.886,4.8861,4.8863,4.8868,4.8808,4.8866,4.8865,4.8865,4.8865,4.8865,0,4.9091,4.9077,4.9072,4.9057,4.9052,4.9028,4.9014,4.9012,4.901,4.8994,4.8987,4.8981,4.8973,4.8948,4.8938,4.894,4.8928,4.8938,4.8938,4.8935,4.8882,4.8879,4.8948,4.8948,4.8948,4.8948,4.8948,4.8948,4.9127,4.9134,4.9117,4.9118,4.9103,4.91,4.9094,4.9083,4.9071,4.9065,4.9059,4.9042,4.9023,4.9011,4.9003,4.8995,4.8993,4.9007,4.8996,4.8947,4.8939,4.8931,4.8929,4.9007,4.9007,4.905,4.905,4.9051]}]]